Flight Track Log - Related Links

Times and Time Zones

All times are in EDT time to prevent confusion due to time zone crossing. See the SAS4139 flight status page for this flight to view local times or setup timezone preferences in your user account.

Time Position Orientation Groundspeed Altitude Reporting Facility
EDT Latitude Longitude Course Direction KTS MPH feet Rate Location/Type
Mon 02:28:29 AM 62.5590 6.1140 320° Northwest  Level FlightAware ADS-B
Mon 02:31:00 AM 62.3305 6.0174 191° South  Level Estimated
Mon 02:34:29 AM 62.5630 6.1200 247° West 92 106  Level FlightAware ADS-B
Mon 02:35:08 AM 62.5520 6.0700 245° Southwest 159 183 1,900 2,348 Climbing FlightAware ADS-B
Mon 02:35:38 AM 62.5410 6.0240 243° Southwest 198 228 2,700 2,432 Climbing FlightAware ADS-B
Mon 02:36:22 AM 62.5230 5.9360 246° West 255 293 4,900 3,514 Climbing FlightAware ADS-B
Mon 02:36:48 AM 62.5000 5.8930 221° Southwest 259 298 6,800 4,313 Climbing FlightAware ADS-B
Mon 02:37:26 AM 62.4550 5.8740 191° South 271 312 9,500 4,265 Climbing FlightAware ADS-B
Mon 02:38:11 AM 62.3980 5.8450 193° South 281 323 12,700 3,740 Climbing FlightAware ADS-B
Mon 02:38:43 AM 62.3560 5.8210 195° South 309 356 14,300 3,231 Climbing FlightAware ADS-B
Mon 02:39:42 AM 62.2700 5.7740 194° South 334 384 17,600 3,537 Climbing FlightAware ADS-B
Mon 02:40:18 AM 62.2160 5.7440 195° South 337 388 19,900 3,635 Climbing FlightAware ADS-B
Mon 02:41:26 AM 62.1160 5.6910 194° South 328 377 23,900 2,343 Climbing FlightAware ADS-B
Mon 02:42:03 AM 62.0610 5.6610 194° South 330 380 24,000 86 Climbing FlightAware ADS-B
Mon 02:42:36 AM 62.0130 5.6350 194° South 331 381 24,000  Level FlightAware ADS-B
Mon 02:43:04 AM 61.9710 5.6130 194° South 333 383 24,000  Level FlightAware ADS-B
Mon 02:44:05 AM 61.8800 5.5650 194° South 333 383 24,000  Level FlightAware ADS-B
Mon 02:45:13 AM 61.7790 5.5110 194° South 333 383 24,000  Level FlightAware ADS-B
Mon 02:46:13 AM 61.6900 5.4640 194° South 333 383 24,000  Level FlightAware ADS-B
Mon 02:47:14 AM 61.5980 5.4160 194° South 335 386 24,000  Level FlightAware ADS-B
Mon 02:47:48 AM 61.5460 5.3890 194° South 333 383 24,000 -270 Level FlightAware ADS-B
Mon 02:48:43 AM 61.4660 5.3470 194° South 323 372 23,600 -759 Descending FlightAware ADS-B
Mon 02:49:07 AM 61.4320 5.3300 193° South 319 367 23,000 -1,967 Descending FlightAware ADS-B
Mon 02:49:44 AM 61.3780 5.3020 194° South 324 373 21,600 -2,113 Descending FlightAware ADS-B
Mon 02:50:18 AM 61.3280 5.2770 193° South 321 369 20,500 -1,944 Descending FlightAware ADS-B
Mon 02:50:55 AM 61.2760 5.2500 194° South 318 366 19,300 -1,938 Descending FlightAware ADS-B
Mon 02:51:23 AM 61.2360 5.2290 194° South 316 364 18,400 -1,946 Descending FlightAware ADS-B
Mon 02:52:09 AM 61.1700 5.2030 191° South 318 366 16,900 -1,935 Descending FlightAware ADS-B
Mon 02:52:56 AM 61.1020 5.1990 182° South 310 357 15,400 -1,846 Descending FlightAware ADS-B
Mon 02:53:27 AM 61.0590 5.1960 182° South 308 354 14,500 -1,826 Descending FlightAware ADS-B
Mon 02:54:05 AM 61.0040 5.1930 182° South 304 350 13,300 -1,826 Descending FlightAware ADS-B
Mon 02:54:36 AM 60.9620 5.1900 182° South 301 346 12,400 -1,765 Descending FlightAware ADS-B
Mon 02:55:13 AM 60.9100 5.1860 182° South 293 337 11,300 -1,378 Descending FlightAware ADS-B
Mon 02:55:50 AM 60.8620 5.1830 182° South 273 314 10,700 -917 Descending FlightAware ADS-B
Mon 02:56:25 AM 60.8200 5.1800 182° South 256 295 10,200 -952 Descending FlightAware ADS-B
Mon 02:56:53 AM 60.7870 5.1780 182° South 252 290 9,700 -1,138 Descending FlightAware ADS-B
Mon 02:57:23 AM 60.7520 5.1760 182° South 250 288 9,100 -1,406 Descending FlightAware ADS-B
Mon 02:57:57 AM 60.7130 5.1730 182° South 246 283 8,200 -1,521 Descending FlightAware ADS-B
Mon 02:58:34 AM 60.6710 5.1700 182° South 246 283 7,300 -1,371 Descending FlightAware ADS-B
Mon 02:59:07 AM 60.6350 5.1680 182° South 242 278 6,600 -1,385 Descending FlightAware ADS-B
Mon 02:59:39 AM 60.5980 5.1650 182° South 239 275 5,800 -1,400 Descending FlightAware ADS-B
Mon 03:00:07 AM 60.5670 5.1630 182° South 237 273 5,200 -971 Descending FlightAware ADS-B
Mon 03:00:47 AM 60.5260 5.1600 182° South 216 249 4,700 -667 Descending FlightAware ADS-B
Mon 03:01:19 AM 60.4950 5.1580 182° South 205 236 4,400 -514 Descending FlightAware ADS-B
Mon 03:01:57 AM 60.4610 5.1620 177° South 193 222 4,100 -486 Descending FlightAware ADS-B
Mon 03:02:33 AM 60.4290 5.1720 171° South 184 212 3,800 -700 Descending FlightAware ADS-B
Mon 03:02:57 AM 60.4070 5.1800 170° South 179 206 3,400 -1,000 Descending FlightAware ADS-B
Mon 03:03:27 AM 60.3850 5.1870 171° South 150 173 2,900 -800 Descending FlightAware ADS-B
Mon 03:03:57 AM 60.3660 5.1940 170° South 113 130 2,600 -700 Descending FlightAware ADS-B
Mon 03:04:27 AM 60.3500 5.1990 171° South 120 138 2,200 -716 Descending FlightAware ADS-B
Mon 03:05:04 AM 60.3320 5.2050 171° South 114 131 1,800 -640 Descending FlightAware ADS-B
Mon 03:05:42 AM 60.3090 5.2130 170° South 115 132 1,400 -632 Descending FlightAware ADS-B

Login

Don't have an account? Register now (free) for customized features, flight alerts, and more!